GW1230 Weather Reports


time (UTC)temp
C
wind
direction
speed
KPH
gust
KPH
rain 1hr
cm
rain 24hr
cm
rain mn
cm
humidity
%
barometer
mb
20260504002642 24 353 6.4 8.0 0.00 0.00 0.00 42 1009.8
20260504002139 25 300 4.8 8.0 0.00 0.00 0.00 42 1009.7
20260504001637 25 2 9.7 14.5 0.00 0.00 0.00 42 1009.6
20260504001133 25 310 6.4 8.0 0.00 0.00 0.00 42 1009.6
20260504000630 26 326 8.0 9.7 0.00 0.00 0.00 42 1009.6
20260504000127 25 323 1.6 1.6 0.00 0.00 0.00 42 1009.9
20260503235626 25 294 4.8 9.7 0.00 0.00 0.00 44 1009.8
20260503235122 25 318 3.2 4.8 0.00 0.00 0.00 44 1009.8
20260503234620 25 311 6.4 11.3 0.00 0.00 0.00 44 1010.1
20260503234118 25 313 1.6 1.6 0.00 0.00 0.00 44 1010.0
20260503233615 25 341 4.8 4.8 0.00 0.00 0.00 44 1010.0
20260503233110 25 309 6.4 8.0 0.00 0.00 0.00 44 1010.1
20260503232607 25 342 6.4 12.9 0.00 0.00 0.00 45 1010.1
20260503232105 25 297 9.7 12.9 0.00 0.00 0.00 44 1010.3
20260503231603 26 318 6.4 8.0 0.00 0.00 0.00 43 1010.4
20260503231059 25 317 3.2 3.2 0.00 0.00 0.00 44 1010.5
20260503230555 25 19 3.2 3.2 0.00 0.00 0.00 44 1010.6
20260503230053 25 326 3.2 3.2 0.00 0.00 0.00 43 1010.5
20260503225550 25 348 11.3 12.9 0.00 0.00 0.00 44 1010.5
20260503225045 25 332 11.3 12.9 0.00 0.00 0.00 44 1010.7
20260503224543 26 261 4.8 8.0 0.00 0.00 0.00 42 1010.7
20260503224040 25 327 6.4 9.7 0.00 0.00 0.00 45 1010.9
20260503223539 25 313 6.4 9.7 0.00 0.00 0.00 44 1011.1
20260503223033 24 294 3.2 3.2 0.00 0.00 0.00 45 1011.1
20260503222532 24 338 14.5 17.7 0.00 0.00 0.00 46 1011.2
20260503222030 25 298 8.0 12.9 0.00 0.00 0.00 45 1011.0
20260503221528 24 348 11.3 14.5 0.00 0.00 0.00 45 1011.4
20260503221025 24 30 8.0 11.3 0.00 0.00 0.00 45 1011.4
20260503220521 24 326 11.3 16.1 0.00 0.00 0.00 45 1011.2
20260503220018 24 326 4.8 4.8 0.00 0.00 0.00 45 1011.5
20260503215515 23 321 3.2 4.8 0.00 0.00 0.00 48 1011.4
20260503215012 24 332 6.4 9.7 0.00 0.00 0.00 49 1011.6
20260503214510 24 339 4.8 9.7 0.00 0.00 0.00 49 1011.3
20260503214007 24 329 4.8 4.8 0.00 0.00 0.00 49 1011.5
20260503213505 24 289 6.4 9.7 0.00 0.00 0.00 49 1011.5
20260503213001 24 335 3.2 3.2 0.00 0.00 0.00 48 1011.4
20260503212459 24 309 1.6 3.2 0.00 0.00 0.00 49 1011.6
20260503211956 25 357 11.3 14.5 0.00 0.00 0.00 45 1011.5
20260503211453 25 329 9.7 12.9 0.00 0.00 0.00 42 1011.5
20260503210948 25 251 8.0 11.3 0.00 0.00 0.00 44 1011.6
20260503210445 25 348 3.2 4.8 0.00 0.00 0.00 43 1011.7
20260503205940 24 318 6.4 9.7 0.00 0.00 0.00 43 1011.8
20260503205437 25 292 4.8 8.0 0.00 0.00 0.00 41 1011.8
20260503204933 23 318 8.0 11.3 0.00 0.00 0.00 42 1011.9
20260503204431 24 299 14.5 17.7 0.00 0.00 0.00 41 1012.1
20260503203928 23 344 8.0 14.5 0.00 0.00 0.00 42 1012.0
20260503203425 25 319 1.6 1.6 0.00 0.00 0.00 41 1012.0
20260503202922 24 294 4.8 8.0 0.00 0.00 0.00 42 1012.2
20260503202420 23 32 14.5 16.1 0.00 0.00 0.00 44 1012.3
20260503201918 23 22 9.7 12.9 0.00 0.00 0.00 44 1012.2
20260503201415 23 321 11.3 16.1 0.00 0.00 0.00 44 1012.4
20260503200913 23 340 8.0 11.3 0.00 0.00 0.00 44 1012.6
20260503200409 23 285 3.2 3.2 0.00 0.00 0.00 44 1012.3
20260503195905 23 327 9.7 11.3 0.00 0.00 0.00 46 1012.6
20260503195403 23 5 16.1 22.5 0.00 0.00 0.00 48 1012.6
20260503194859 23 304 8.0 11.3 0.00 0.00 0.00 48 1012.6
20260503194356 23 332 3.2 4.8 0.00 0.00 0.00 49 1012.7
20260503193852 23 313 11.3 16.1 0.00 0.00 0.00 47 1012.6
20260503193347 23 312 1.6 1.6 0.00 0.00 0.00 47 1012.6
20260503192843 23 18 8.0 11.3 0.00 0.00 0.00 47 1012.7
20260503192339 23 7 9.7 12.9 0.00 0.00 0.00 49 1012.9
20260503191836 23 3 4.8 4.8 0.00 0.00 0.00 51 1012.9
20260503191333 23 328 6.4 8.0 0.00 0.00 0.00 51 1012.9
20260503190829 23 3 4.8 9.7 0.00 0.00 0.00 51 1013.2
20260503190327 23 348 1.6 1.6 0.00 0.00 0.00 52 1013.2
20260503185824 23 287 4.8 9.7 0.00 0.00 0.00 50 1013.2
20260503185319 24 318 8.0 11.3 0.00 0.00 0.00 51 1013.2
20260503184814 22 353 3.2 3.2 0.00 0.00 0.00 52 1013.4
20260503184310 22 307 4.8 8.0 0.00 0.00 0.00 55 1013.3
20260503183806 22 350 12.9 14.5 0.00 0.00 0.00 54 1013.4
20260503183304 22 314 1.6 3.2 0.00 0.00 0.00 55 1013.3
20260503182801 22 336 11.3 14.5 0.00 0.00 0.00 56 1013.3
20260503182300 22 301 14.5 16.1 0.00 0.00 0.00 55 1013.3
20260503181756 22 317 9.7 14.5 0.00 0.00 0.00 55 1013.4
20260503181253 21 328 4.8 12.9 0.00 0.00 0.00 57 1013.6
20260503180744 22 316 3.2 4.8 0.00 0.00 0.00 56 1013.4
20260503180242 22 336 4.8 4.8 0.00 0.00 0.00 56 1013.4
20260503175738 22 314 3.2 3.2 0.00 0.00 0.00 55 1013.6
20260503175236 21 315 6.4 9.7 0.00 0.00 0.00 56 1013.5
20260503174732 21 316 11.3 12.9 0.00 0.00 0.00 57 1013.3
20260503174230 21 330 8.0 11.3 0.00 0.00 0.00 58 1013.6
20260503173725 21 351 9.7 12.9 0.00 0.00 0.00 58 1013.6
20260503173221 21 282 8.0 11.3 0.00 0.00 0.00 58 1013.6
20260503172718 21 301 6.4 9.7 0.00 0.00 0.00 59 1013.9
20260503172215 21 317 3.2 3.2 0.00 0.00 0.00 60 1013.9
20260503171711 21 271 8.0 12.9 0.00 0.00 0.00 59 1013.7
20260503171209 21 328 3.2 4.8 0.00 0.00 0.00 57 1013.6
20260503170706 20 347 0.0 1.6 0.00 0.00 0.00 59 1013.6
20260503170203 20 314 3.2 3.2 0.00 0.00 0.00 60 1013.9
20260503160124 20 8 4.8 4.8 0.00 0.00 0.00 59 1014.1
20260503150554 18 5 6.4 8.0 0.00 0.00 0.00 64 1014.3
20260503130944 13 36 1.6 1.6 0.00 0.00 0.00 77 1013.9
20260503130442 13 3 0.0 0.0 0.00 0.00 0.00 77 1013.9
20260503110332 15 44 6.4 9.7 0.00 0.00 0.00 70 1014.0
20260503100258 15 326 1.6 1.6 0.00 0.00 0.00 69 1014.3
20260503090218 16 21 3.2 3.2 0.00 0.00 0.00 60 1014.2
20260503081145 16 37 3.2 3.2 0.00 0.00 0.00 58 1014.3
20260503080641 17 59 1.6 3.2 0.00 0.00 0.00 58 1014.4
20260503080138 17 50 1.6 1.6 0.00 0.00 0.00 58 1014.4
20260503072615 17 3 1.6 1.6 0.00 0.00 0.00 58 1014.2
20260503072112 17 19 1.6 1.6 0.00 0.00 0.00 58 1014.3
20260503071608 17 351 1.6 1.6 0.00 0.00 0.00 57 1014.2
20260503071105 17 356 1.6 1.6 0.00 0.00 0.00 57 1014.2
20260503070602 17 25 0.0 1.6 0.00 0.00 0.00 58 1014.2
20260503055015 17 60 4.8 4.8 0.00 0.00 0.00 56 1013.9
20260503054510 18 37 3.2 3.2 0.00 0.00 0.00 57 1013.9
20260503054008 18 35 3.2 3.2 0.00 0.00 0.00 55 1014.2
20260503053506 18 53 3.2 3.2 0.00 0.00 0.00 55 1014.2
20260503053004 18 63 3.2 4.8 0.00 0.00 0.00 55 1014.0
20260503052500 18 7 1.6 1.6 0.00 0.00 0.00 56 1014.1
20260503051956 18 0 0.0 1.6 0.00 0.00 0.00 55 1014.0
20260503051452 18 30 1.6 1.6 0.00 0.00 0.00 55 1014.1
20260503050950 18 346 0.0 0.0 0.00 0.00 0.00 56 1013.9
20260503050445 18 2 1.6 1.6 0.00 0.00 0.00 56 1014.2
20260503045943 18 41 1.6 3.2 0.00 0.00 0.00 55 1014.2
20260503045440 18 71 4.8 4.8 0.00 0.00 0.00 55 1014.1
20260503044937 18 73 3.2 4.8 0.00 0.00 0.00 54 1013.9
20260503044434 18 76 1.6 3.2 0.00 0.00 0.00 54 1014.1
20260503043932 18 69 1.6 3.2 0.00 0.00 0.00 53 1013.9
20260503043427 18 32 1.6 1.6 0.00 0.00 0.00 54 1014.0
20260503042924 18 46 1.6 1.6 0.00 0.00 0.00 53 1013.7
20260503042421 18 21 1.6 3.2 0.00 0.00 0.00 53 1013.4
20260503041917 19 74 3.2 4.8 0.00 0.00 0.00 53 1013.7
20260503041415 19 62 1.6 1.6 0.00 0.00 0.00 52 1013.6
20260503040912 19 69 1.6 3.2 0.00 0.00 0.00 53 1013.5
20260503040409 19 12 1.6 1.6 0.00 0.00 0.00 53 1013.5
20260503035906 19 61 1.6 3.2 0.00 0.00 0.00 53 1013.5
20260503035403 19 18 4.8 4.8 0.00 0.00 0.00 53 1013.2
20260503034900 19 328 0.0 0.0 0.00 0.00 0.00 53 1013.3
20260503034358 19 343 4.8 4.8 0.00 0.00 0.00 54 1013.1
20260503033855 19 335 0.0 0.0 0.00 0.00 0.00 54 1013.1
20260503033352 19 332 3.2 3.2 0.00 0.00 0.00 54 1013.0
20260503032850 19 313 3.2 3.2 0.00 0.00 0.00 54 1012.7
20260503032349 19 345 3.2 3.2 0.00 0.00 0.00 55 1013.0
20260503031846 20 329 1.6 1.6 0.00 0.00 0.00 55 1012.9
20260503031344 20 15 0.0 1.6 0.00 0.00 0.00 54 1012.8
20260503030839 20 1 0.0 0.0 0.00 0.00 0.00 55 1012.8
20260503030336 20 357 3.2 3.2 0.00 0.00 0.00 54 1012.8
20260503025833 20 344 6.4 8.0 0.00 0.00 0.00 54 1012.7
20260503025330 20 353 9.7 12.9 0.00 0.00 0.00 53 1012.8
20260503024827 20 325 4.8 4.8 0.00 0.00 0.00 54 1012.7
20260503024324 20 320 1.6 3.2 0.00 0.00 0.00 55 1012.9
20260503023821 20 331 9.7 11.3 0.00 0.00 0.00 54 1012.6
20260503023318 21 319 1.6 3.2 0.00 0.00 0.00 54 1012.7
20260503022814 21 346 4.8 8.0 0.00 0.00 0.00 54 1012.9
20260503022309 21 332 1.6 3.2 0.00 0.00 0.00 54 1012.6
20260503021805 21 336 3.2 3.2 0.00 0.00 0.00 54 1012.5
20260503021302 21 310 4.8 8.0 0.00 0.00 0.00 54 1012.7
20260503020759 22 355 4.8 8.0 0.00 0.00 0.00 53 1012.8
20260503020257 21 1 8.0 11.3 0.00 0.00 0.00 53 1012.7
20260503015753 21 354 1.6 4.8 0.00 0.00 0.00 53 1012.8
20260503015250 21 343 4.8 9.7 0.00 0.00 0.00 53 1012.6
20260503014745 22 296 9.7 12.9 0.00 0.00 0.00 53 1012.7
20260503014244 21 343 6.4 9.7 0.00 0.00 0.00 54 1012.8
20260503013741 21 324 3.2 3.2 0.00 0.00 0.00 54 1012.8
20260503013238 21 310 11.3 14.5 0.00 0.00 0.00 54 1012.7
20260503012735 21 11 9.7 11.3 0.00 0.00 0.00 53 1012.8
20260503012233 22 311 4.8 8.0 0.00 0.00 0.00 52 1012.9
20260503011729 22 23 3.2 3.2 0.00 0.00 0.00 52 1012.8
20260503011226 22 353 6.4 11.3 0.00 0.00 0.00 52 1012.6
20260503010722 22 300 4.8 4.8 0.00 0.00 0.00 52 1012.7
20260503010219 22 323 3.2 3.2 0.00 0.00 0.00 51 1012.7
20260503005717 22 312 8.0 12.9 0.00 0.00 0.00 51 1012.7
20260503005214 21 352 4.8 4.8 0.00 0.00 0.00 52 1012.9
20260503004710 22 339 11.3 14.5 0.00 0.00 0.00 53 1012.8
20260503004209 22 318 4.8 8.0 0.00 0.00 0.00 53 1013.2
20260503003706 22 354 9.7 11.3 0.00 0.00 0.00 53 1013.0
20260503003203 22 344 8.0 12.9 0.00 0.00 0.00 53 1013.2